Location: ??????????
(44.2167°N, 135.5333°E)
Time: 15:09:25
(UTC+00:00)

Aureole 3 - Pass Details

Date: 15 June 2025
Orbit: 374 x 1063 km, 82.5° (Epoch: 15 July)

Event Time Altitude Azimuth Distance (km) Brightness Sun altitude
Exits shadow 15:18:25 46° 202° (SSW) 1,173 4.5 -22.3°
Maximum altitude 15:20:15 78° 279° (W) 944 4.3 -22.3°
Drops below altitude 10° 15:26:47 10° 7° (N) 2,807 8.1 -22.1°
Sets 15:29:31 0° 8° (N) 3,812 9.1 -22.1°
